7 * 24
多渠道服务支持
STARLINK-30892是美国太空探索技术公司SpaceX星链(Starlink)项目的卫星,于2023年11月18日发射。星链计划旨在近地轨道构建万颗卫星组成的巨型星座,为全球偏远区域、海洋等缺乏网络覆盖区域提供高速互联网接入服务。该卫星属于星链第二代组网卫星,运行在近地轨道,采用星间激光链路技术,助力提升星座整体通信覆盖能力与传输速率。
美国
(US)
| 数据来源 | 国际轨道数据 |
| 星历时间: | 2026-09-03T22:02:19+0800 19小时前 查看轨道信息 |
| 半长轴: | 6861.194km |
| 偏心率: | 0.0001471 |
| 轨道倾角: | 43.003° |
| 近地点辐角 | 263.962° |
| 升交点赤经 | 65.991° |
| 平近点角 | 96.107° |
| 近地点: | 482.047km |
| 远地点: | 484.067km |
| 周期: | 94.267分钟 |
| 每日圈数: | 15.275774 |